Skagway, AK

5:06 PM AKDT on October 22, 2017 (GMT -0800)
Skagway

Weather History for PAGY - September, 2013

Change the Weather History Date:

Thursday, September 5, 2013

  Actual Average Record
Temperature  
Mean Temperature 58 °F -  
Max Temperature 62 °F 56 °F 73 °F (1986)
Min Temperature 55 °F 45 °F 38 °F (1965)
Degree Days  
Heating Degree Days 7    
Growing Degree Days 8 (Base 50)    
Moisture  
Dew Point 50 °F    
Average Humidity 74    
Maximum Humidity 89    
Minimum Humidity 64    
Precipitation  
Precipitation 0.02 in - - ()
Sea Level Pressure  
Sea Level Pressure 30.09 in    
Wind  
Wind Speed 17 mph (SSW)    
Max Wind Speed 25 mph    
Max Gust Speed 33 mph    
Visibility 10 miles    
Events Rain    
Averages and records for this station are not official NWS values.
T = Trace of Precipitation, MM = Missing Value Source: NWS Daily Summary

Daily Weather History Graph

Daily Weather History Graph

Search for Another Location

Airport or City:

Trip Planner

Search our weather history database for the weather conditions in past years. The results will help you decide how hot, cold, wet, or windy it might be!

Date:

Astronomy

Sep. 05, 2013 Rise Set
Actual Time 6:07 AM AKDT 7:50 PM AKDT
Civil Twilight 5:24 AM AKDT 8:33 PM AKDT
Nautical Twilight 4:29 AM AKDT 9:27 PM AKDT
Astronomical Twilight 3:23 AM AKDT 10:32 PM AKDT
Moon 6:44 AM AKDT (9/5) 7:21 PM AKDT (9/5)
Length of Visible Light 15h 08m
Length of Day
13h 42m
New Moon, 0% of the Moon is Illuminated
Sep 5
New Moon
Sep 12
First Quarter
Sep 19
Full
Sep 26
Last Quarter
Oct 4
New

Hourly Weather History & Observations

Time (AKDT) Temp. Dew Point Humidity Pressure Visibility Wind Dir Wind Speed Gust Speed Precip Events Conditions
12:53 AM 57.9 °F 52.0 °F 81% 29.90 in 10.0 mi SSW 25.3 mph 33.4 mph 0.00 in   Overcast
1:53 AM 59.0 °F 51.1 °F 75% 29.93 in 10.0 mi SSW 21.9 mph 27.6 mph N/A   Overcast
2:53 AM 57.9 °F 50.0 °F 75% 29.96 in 10.0 mi SSW 17.3 mph 27.6 mph N/A   Overcast
3:53 AM 57.0 °F 50.0 °F 77% 29.96 in 10.0 mi SSW 20.7 mph 27.6 mph N/A   Mostly Cloudy
4:53 AM 57.0 °F 48.9 °F 74% 29.99 in 10.0 mi SSW 16.1 mph 25.3 mph N/A   Partly Cloudy
5:53 AM 57.9 °F 48.9 °F 72% 30.02 in 10.0 mi SSW 16.1 mph 19.6 mph N/A   Overcast
6:53 AM 57.0 °F 50.0 °F 77% 30.04 in 10.0 mi SSW 15.0 mph - N/A   Overcast
7:53 AM 57.9 °F 50.0 °F 75% 30.06 in 10.0 mi SSW 15.0 mph - N/A   Overcast
8:53 AM 57.0 °F 50.0 °F 77% 30.09 in 10.0 mi SSW 16.1 mph - N/A   Overcast
9:53 AM 57.9 °F 50.0 °F 75% 30.09 in 10.0 mi SSW 15.0 mph 23.0 mph N/A   Overcast
10:53 AM 59.0 °F 50.0 °F 72% 30.10 in 10.0 mi SSW 19.6 mph - N/A   Overcast
11:53 AM 59.0 °F 50.0 °F 72% 30.12 in 10.0 mi SSW 19.6 mph 26.5 mph N/A   Overcast
12:53 PM 59.0 °F 48.9 °F 69% 30.13 in 10.0 mi SSW 18.4 mph 28.8 mph N/A   Overcast
1:53 PM 59.0 °F 50.0 °F 72% 30.14 in 10.0 mi SSW 19.6 mph 29.9 mph N/A   Overcast
2:53 PM 59.0 °F 48.9 °F 69% 30.14 in 10.0 mi SSW 20.7 mph - N/A   Overcast
3:53 PM 60.1 °F 48.9 °F 67% 30.15 in 10.0 mi SSW 19.6 mph 27.6 mph N/A   Overcast
4:53 PM 60.1 °F 50.0 °F 69% 30.15 in 10.0 mi SSW 13.8 mph - N/A   Overcast
5:53 PM 61.0 °F 48.9 °F 64% 30.15 in 10.0 mi SSW 13.8 mph - N/A   Overcast
6:53 PM 60.1 °F 48.9 °F 67% 30.15 in 10.0 mi SSW 11.5 mph - N/A   Overcast
7:53 PM 59.0 °F 48.9 °F 69% 30.16 in 10.0 mi SW 11.5 mph 18.4 mph N/A   Overcast
8:53 PM 57.0 °F 50.0 °F 77% 30.17 in 10.0 mi Calm Calm - 0.00 in Rain Light Rain
9:53 PM 55.9 °F 51.1 °F 84% 30.17 in 10.0 mi Calm Calm - 0.00 in Rain Light Rain
10:53 PM 55.0 °F 52.0 °F 89% 30.17 in 10.0 mi NNE 3.5 mph - 0.00 in   Overcast
11:53 PM 55.0 °F 52.0 °F 89% 30.19 in 10.0 mi Calm Calm - 0.02 in Rain Light Rain